Year,Month,Day,Hour,Minute,Value (Times are PST for temperature in C)
2024,01,30,00,00,14.30
2024,01,30,00,01,14.30
2024,01,30,00,02,14.30
2024,01,30,00,03,14.40
2024,01,30,00,04,14.40
2024,01,30,00,05,14.40
2024,01,30,00,06,14.50
2024,01,30,00,07,14.50
2024,01,30,00,08,14.50
2024,01,30,00,09,14.50
2024,01,30,00,10,14.50
2024,01,30,00,11,14.50
2024,01,30,00,12,14.40
2024,01,30,00,13,14.40
2024,01,30,00,14,14.40
2024,01,30,00,15,14.40
2024,01,30,00,16,14.40
2024,01,30,00,17,14.40
2024,01,30,00,18,14.30
2024,01,30,00,19,14.30
2024,01,30,00,20,14.30
2024,01,30,00,21,14.30
2024,01,30,00,22,14.30
2024,01,30,00,23,14.30
2024,01,30,00,24,14.30
2024,01,30,00,25,14.30
2024,01,30,00,26,14.30
2024,01,30,00,27,14.30
2024,01,30,00,28,14.30
2024,01,30,00,29,14.30
2024,01,30,00,30,14.30
2024,01,30,00,31,14.30
2024,01,30,00,32,14.30
2024,01,30,00,33,14.30
2024,01,30,00,34,14.30
2024,01,30,00,35,14.30
2024,01,30,00,36,14.30
2024,01,30,00,37,14.20
2024,01,30,00,38,14.20
2024,01,30,00,39,14.10
2024,01,30,00,40,14.10
2024,01,30,00,41,14.10
2024,01,30,00,42,14.00
2024,01,30,00,43,14.00
2024,01,30,00,44,13.90
2024,01,30,00,45,13.90
2024,01,30,00,46,13.90
2024,01,30,00,47,13.90
2024,01,30,00,48,13.80
2024,01,30,00,49,13.80
2024,01,30,00,50,13.80
2024,01,30,00,51,13.80
2024,01,30,00,52,13.80
2024,01,30,00,53,13.70
2024,01,30,00,54,13.70
2024,01,30,00,55,13.70
2024,01,30,00,56,13.60
2024,01,30,00,57,13.60
2024,01,30,00,58,13.60
2024,01,30,00,59,13.60
2024,01,30,01,00,13.60
2024,01,30,01,01,13.50
2024,01,30,01,02,13.50
2024,01,30,01,03,13.40
2024,01,30,01,04,13.40
2024,01,30,01,05,13.30
2024,01,30,01,06,13.30
2024,01,30,01,07,13.20
2024,01,30,01,08,13.10
2024,01,30,01,09,13.10
2024,01,30,01,10,13.00
2024,01,30,01,11,12.90
2024,01,30,01,12,12.90
2024,01,30,01,13,12.80
2024,01,30,01,14,12.80
2024,01,30,01,15,12.80
2024,01,30,01,16,12.70
2024,01,30,01,17,12.70
2024,01,30,01,18,12.60
2024,01,30,01,19,12.60
2024,01,30,01,20,12.60
2024,01,30,01,21,12.60
2024,01,30,01,22,12.50
2024,01,30,01,23,12.50
2024,01,30,01,24,12.50
2024,01,30,01,25,12.40
2024,01,30,01,26,12.40
2024,01,30,01,27,12.40
2024,01,30,01,28,12.40
2024,01,30,01,29,12.40
2024,01,30,01,30,12.30
2024,01,30,01,31,12.30
2024,01,30,01,32,12.30
2024,01,30,01,33,12.30
2024,01,30,01,34,12.30
2024,01,30,01,35,12.30
2024,01,30,01,36,12.30
2024,01,30,01,37,12.30
2024,01,30,01,38,12.30
2024,01,30,01,39,12.30
2024,01,30,01,40,12.30
2024,01,30,01,41,12.20
2024,01,30,01,42,12.20
2024,01,30,01,43,12.20
2024,01,30,01,44,12.20
2024,01,30,01,45,12.10
2024,01,30,01,46,12.10
2024,01,30,01,47,12.00
2024,01,30,01,48,12.00
2024,01,30,01,49,12.00
2024,01,30,01,50,12.00
2024,01,30,01,51,11.90
2024,01,30,01,52,11.90
2024,01,30,01,53,11.90
2024,01,30,01,54,11.90
2024,01,30,01,55,11.90
2024,01,30,01,56,11.90
2024,01,30,01,57,11.90
2024,01,30,01,58,11.80
2024,01,30,01,59,11.90
2024,01,30,02,00,11.90
2024,01,30,02,01,11.90
2024,01,30,02,02,11.90
2024,01,30,02,03,11.80
2024,01,30,02,04,11.80
2024,01,30,02,05,11.80
2024,01,30,02,06,11.80
2024,01,30,02,07,11.80
2024,01,30,02,08,11.80
2024,01,30,02,09,11.80
2024,01,30,02,10,11.80
2024,01,30,02,11,11.80
2024,01,30,02,12,11.80
2024,01,30,08,43,10.90
2024,01,30,08,44,10.90
2024,01,30,08,45,10.90
2024,01,30,08,46,10.90
2024,01,30,08,47,10.90
2024,01,30,08,48,11.00
2024,01,30,08,49,11.00
2024,01,30,08,50,11.10
2024,01,30,08,51,11.10
2024,01,30,08,52,11.10
2024,01,30,08,53,11.20
2024,01,30,08,54,11.20
2024,01,30,08,55,11.20
2024,01,30,08,56,11.20
2024,01,30,08,57,11.20
2024,01,30,08,58,11.20
2024,01,30,08,59,11.20
2024,01,30,09,00,11.20
2024,01,30,09,01,11.20
2024,01,30,09,02,11.20
2024,01,30,09,03,11.10
2024,01,30,09,04,11.10
2024,01,30,09,05,11.10
2024,01,30,09,06,11.10
2024,01,30,09,07,11.10
2024,01,30,09,08,11.10
2024,01,30,09,09,11.10
2024,01,30,09,10,11.10
2024,01,30,09,11,11.00
2024,01,30,09,12,11.00
2024,01,30,09,13,11.00
2024,01,30,09,14,11.00
2024,01,30,09,15,11.00
2024,01,30,09,16,11.00
2024,01,30,09,17,11.00
2024,01,30,09,18,11.00
2024,01,30,09,19,11.00
2024,01,30,09,20,11.00
2024,01,30,09,21,11.10
2024,01,30,09,22,11.10
2024,01,30,09,23,11.10
2024,01,30,09,24,11.10
2024,01,30,09,25,11.10
2024,01,30,09,26,11.10
2024,01,30,09,27,11.10
2024,01,30,09,28,11.10
2024,01,30,09,29,11.10
2024,01,30,09,30,11.10
2024,01,30,09,31,11.20
2024,01,30,09,32,11.20
2024,01,30,09,33,11.20
2024,01,30,09,34,11.20
2024,01,30,09,35,11.20
2024,01,30,09,36,11.30
2024,01,30,09,37,11.30
2024,01,30,09,38,11.30
2024,01,30,09,39,11.30
2024,01,30,09,40,11.30
2024,01,30,09,41,11.30
2024,01,30,09,42,11.30
2024,01,30,09,43,11.30
2024,01,30,09,44,11.30
2024,01,30,09,45,11.30
2024,01,30,09,46,11.30
2024,01,30,09,47,11.30
2024,01,30,09,48,11.30
2024,01,30,09,49,11.30
2024,01,30,09,50,11.30
2024,01,30,09,51,11.30
2024,01,30,09,52,11.30
2024,01,30,09,53,11.30
2024,01,30,09,54,11.30
2024,01,30,09,55,11.30
2024,01,30,09,56,11.30
2024,01,30,09,57,11.30
2024,01,30,09,58,11.30
2024,01,30,09,59,11.30
2024,01,30,10,00,11.30
2024,01,30,10,01,11.30
2024,01,30,10,02,11.30
2024,01,30,10,03,11.30
2024,01,30,10,04,11.30
2024,01,30,10,05,11.30
2024,01,30,10,06,11.30
2024,01,30,10,07,11.30
2024,01,30,10,08,11.30
2024,01,30,10,09,11.30
2024,01,30,10,10,11.30
2024,01,30,10,11,11.30
2024,01,30,10,12,11.30
2024,01,30,10,13,11.40
2024,01,30,10,14,11.40
2024,01,30,10,15,11.40
2024,01,30,10,16,11.40
2024,01,30,10,17,11.40
2024,01,30,10,18,11.40
2024,01,30,10,19,11.40
2024,01,30,10,20,11.40
2024,01,30,10,21,11.40
2024,01,30,10,22,11.40
2024,01,30,10,23,11.40
2024,01,30,10,24,11.40
2024,01,30,10,25,11.40
2024,01,30,10,26,11.40
2024,01,30,10,27,11.40
2024,01,30,10,28,11.40
2024,01,30,10,29,11.40
2024,01,30,10,30,11.40
2024,01,30,10,31,11.40
2024,01,30,10,32,11.50
2024,01,30,10,33,11.50
2024,01,30,10,34,11.50
2024,01,30,10,35,11.50
2024,01,30,10,36,11.50
2024,01,30,10,37,11.50
2024,01,30,10,38,11.50
2024,01,30,10,39,11.60
2024,01,30,10,40,11.60
2024,01,30,10,41,11.60
2024,01,30,10,42,11.60
2024,01,30,10,43,11.60
2024,01,30,10,44,11.70
2024,01,30,10,45,11.70
2024,01,30,10,46,11.70
2024,01,30,10,47,11.70
2024,01,30,10,48,11.80
2024,01,30,10,49,11.80
2024,01,30,10,50,11.80
2024,01,30,10,51,11.80
2024,01,30,10,52,11.80
2024,01,30,10,53,11.90
2024,01,30,10,54,11.90
2024,01,30,10,55,11.90
2024,01,30,10,56,11.90
2024,01,30,10,57,11.90
2024,01,30,10,58,12.00
2024,01,30,10,59,12.00
2024,01,30,11,00,12.00
2024,01,30,11,01,12.10
2024,01,30,11,02,12.10
2024,01,30,11,03,12.10
2024,01,30,11,04,12.10
2024,01,30,11,05,12.10
2024,01,30,11,06,12.10
2024,01,30,11,07,12.20
2024,01,30,11,08,12.20
2024,01,30,11,09,12.20
2024,01,30,11,10,12.20
2024,01,30,11,11,12.20
2024,01,30,11,12,12.20
2024,01,30,11,13,12.20
2024,01,30,11,14,12.20
2024,01,30,11,15,12.20
2024,01,30,11,16,12.30
2024,01,30,11,17,12.30
2024,01,30,11,18,12.30
2024,01,30,11,19,12.30
2024,01,30,11,20,12.20
2024,01,30,11,21,12.30
2024,01,30,11,22,12.30
2024,01,30,11,23,12.30
2024,01,30,11,24,12.30
2024,01,30,11,25,12.30
2024,01,30,11,26,12.30
2024,01,30,11,27,12.30
2024,01,30,11,28,12.30
2024,01,30,11,29,12.30
2024,01,30,11,30,12.40
2024,01,30,11,31,12.40
2024,01,30,11,32,12.40
2024,01,30,11,33,12.40
2024,01,30,11,34,12.40
2024,01,30,11,35,12.40
2024,01,30,11,36,12.40
2024,01,30,11,37,12.50
2024,01,30,11,38,12.50
2024,01,30,11,39,12.50
2024,01,30,11,40,12.50
2024,01,30,11,41,12.50
2024,01,30,11,42,12.50
2024,01,30,11,43,12.50
2024,01,30,11,44,12.50
2024,01,30,11,45,12.50
2024,01,30,11,46,12.50
2024,01,30,11,47,12.50
2024,01,30,11,48,12.50
2024,01,30,11,49,12.50
2024,01,30,11,50,12.50
2024,01,30,11,51,12.50
2024,01,30,11,52,12.50
2024,01,30,11,53,12.50
2024,01,30,11,54,12.50
2024,01,30,11,55,12.50
2024,01,30,11,56,12.50
2024,01,30,11,57,12.50
2024,01,30,11,58,12.50
2024,01,30,11,59,12.50
2024,01,30,12,00,12.50
2024,01,30,12,01,12.50
2024,01,30,12,02,12.50
2024,01,30,12,03,12.50
2024,01,30,12,04,12.50
2024,01,30,12,05,12.50
2024,01,30,12,06,12.60
2024,01,30,12,07,12.60
2024,01,30,12,08,12.60
2024,01,30,12,09,12.60
2024,01,30,12,10,12.60
2024,01,30,12,11,12.60
2024,01,30,12,12,12.60
2024,01,30,12,13,12.50
2024,01,30,12,14,12.50
2024,01,30,12,15,12.50
2024,01,30,12,16,12.50
2024,01,30,12,17,12.50
2024,01,30,12,18,12.40
2024,01,30,12,19,12.40
2024,01,30,12,20,12.40
2024,01,30,12,21,12.40
2024,01,30,12,22,12.40
2024,01,30,12,23,12.40
2024,01,30,12,24,12.40
2024,01,30,12,25,12.40
2024,01,30,12,26,12.40
2024,01,30,12,27,12.40
2024,01,30,12,28,12.40
2024,01,30,12,29,12.40
2024,01,30,12,30,12.40
2024,01,30,12,31,12.40
2024,01,30,12,32,12.30
2024,01,30,12,33,12.30
2024,01,30,12,34,12.30
2024,01,30,12,35,12.30
2024,01,30,12,36,12.30
2024,01,30,12,37,12.30
2024,01,30,12,38,12.20
2024,01,30,12,39,12.20
2024,01,30,12,40,12.10
2024,01,30,12,41,12.10
2024,01,30,12,42,12.00
2024,01,30,12,43,12.00
2024,01,30,12,44,11.90
2024,01,30,12,45,11.90
2024,01,30,12,46,11.90
2024,01,30,12,47,11.80
2024,01,30,12,48,11.80
2024,01,30,12,49,11.80
2024,01,30,12,50,11.80
2024,01,30,12,51,11.80
2024,01,30,12,52,11.80
2024,01,30,12,53,11.70
2024,01,30,12,54,11.70
2024,01,30,12,55,11.70
2024,01,30,12,56,11.70
2024,01,30,12,57,11.70
2024,01,30,12,58,11.70
2024,01,30,12,59,11.70
2024,01,30,13,00,11.70
2024,01,30,13,01,11.70
2024,01,30,13,02,11.60
2024,01,30,13,03,11.60
2024,01,30,13,04,11.60
2024,01,30,13,05,11.60
2024,01,30,13,06,11.60
2024,01,30,13,07,11.60
2024,01,30,13,08,11.50
2024,01,30,13,09,11.50
2024,01,30,13,10,11.50
2024,01,30,13,11,11.50
2024,01,30,13,12,11.50
2024,01,30,13,13,11.50
2024,01,30,13,14,11.50
2024,01,30,13,15,11.50
2024,01,30,13,16,11.40
2024,01,30,13,17,11.40
2024,01,30,13,18,11.40
2024,01,30,13,19,11.40
2024,01,30,13,20,11.40
2024,01,30,13,21,11.40
2024,01,30,13,22,11.40
2024,01,30,13,23,11.40
2024,01,30,13,24,11.40
2024,01,30,13,25,11.40
2024,01,30,13,26,11.40
2024,01,30,13,27,11.40
2024,01,30,13,28,11.40
2024,01,30,13,29,11.40
2024,01,30,13,30,11.40
2024,01,30,13,31,11.40
2024,01,30,13,32,11.40
2024,01,30,13,33,11.40
2024,01,30,13,34,11.40
2024,01,30,13,35,11.40
2024,01,30,13,36,11.40
2024,01,30,13,37,11.40
2024,01,30,13,38,11.40
2024,01,30,13,39,11.40
2024,01,30,13,40,11.40
2024,01,30,13,41,11.40
2024,01,30,13,42,11.50
2024,01,30,13,43,11.50
2024,01,30,13,44,11.50
2024,01,30,13,45,11.60
2024,01,30,13,46,11.60
2024,01,30,13,47,11.60
2024,01,30,13,48,11.60
2024,01,30,13,49,11.60
2024,01,30,13,50,11.60
2024,01,30,13,51,11.70
2024,01,30,13,52,11.70
2024,01,30,13,53,11.70
2024,01,30,13,54,11.70
2024,01,30,13,55,11.70
2024,01,30,13,56,11.80
2024,01,30,13,57,11.80
2024,01,30,13,58,11.80
2024,01,30,13,59,11.90
2024,01,30,14,00,11.90
2024,01,30,14,01,11.90
2024,01,30,14,02,12.00
2024,01,30,14,03,12.00
2024,01,30,14,04,12.10
2024,01,30,14,05,12.10
2024,01,30,14,06,12.10
2024,01,30,14,07,12.10
2024,01,30,14,08,12.10
2024,01,30,14,09,12.10
2024,01,30,14,10,12.10
2024,01,30,14,11,12.10
2024,01,30,14,12,12.10
2024,01,30,14,13,12.10
2024,01,30,14,14,12.10
2024,01,30,14,15,12.10
2024,01,30,14,16,12.10
2024,01,30,14,17,12.10
2024,01,30,14,18,12.10
2024,01,30,14,19,12.10
2024,01,30,14,20,12.10
2024,01,30,14,21,12.00
2024,01,30,14,22,12.00
2024,01,30,14,23,11.90
2024,01,30,14,24,11.90
2024,01,30,14,25,11.90
2024,01,30,14,26,11.90
2024,01,30,14,27,11.90
2024,01,30,14,28,11.90
2024,01,30,14,29,11.90
2024,01,30,14,30,11.90
2024,01,30,14,31,11.90
2024,01,30,14,32,11.90
2024,01,30,14,33,11.90
2024,01,30,14,34,11.90
2024,01,30,14,35,11.90
2024,01,30,14,36,11.90
2024,01,30,14,37,11.90
2024,01,30,14,38,11.90
2024,01,30,14,39,11.90
2024,01,30,14,40,11.90
2024,01,30,14,41,11.80
2024,01,30,14,42,11.80
2024,01,30,14,43,11.80
2024,01,30,14,44,11.80
2024,01,30,14,45,11.80
2024,01,30,14,46,11.90
2024,01,30,14,47,12.00
2024,01,30,14,48,12.00
2024,01,30,14,49,12.10
2024,01,30,14,50,12.20
2024,01,30,14,51,12.20
2024,01,30,14,52,12.30
2024,01,30,14,53,12.30
2024,01,30,14,54,12.40
2024,01,30,14,55,12.40
2024,01,30,14,56,12.40
2024,01,30,14,57,12.40
2024,01,30,14,58,12.40
2024,01,30,14,59,12.50
2024,01,30,15,00,12.50
2024,01,30,15,01,12.50
2024,01,30,15,02,12.60
2024,01,30,15,03,12.60
2024,01,30,15,04,12.60
2024,01,30,15,05,12.70
2024,01,30,15,06,12.70
2024,01,30,15,07,12.80
2024,01,30,15,08,12.80
2024,01,30,15,09,12.90
2024,01,30,15,10,12.90
2024,01,30,15,11,12.90
2024,01,30,15,12,13.00
2024,01,30,15,13,13.00
2024,01,30,15,14,13.10
2024,01,30,15,15,13.00
2024,01,30,15,16,13.00
2024,01,30,15,17,13.00
2024,01,30,15,18,13.00
2024,01,30,15,19,13.00
2024,01,30,15,20,13.00
2024,01,30,15,21,12.90
2024,01,30,15,22,13.00
2024,01,30,15,23,13.00
2024,01,30,15,24,13.00
2024,01,30,15,25,13.00
2024,01,30,15,26,13.00
2024,01,30,15,27,13.00
2024,01,30,15,28,13.00
2024,01,30,15,29,13.00
2024,01,30,15,30,13.00
2024,01,30,15,31,13.00
2024,01,30,15,32,12.90
2024,01,30,15,33,12.90
2024,01,30,15,34,12.80
2024,01,30,15,35,12.80
2024,01,30,15,36,12.80
2024,01,30,15,37,12.70
2024,01,30,15,38,12.70
2024,01,30,15,39,12.60
2024,01,30,15,40,12.60
2024,01,30,15,41,12.60
2024,01,30,15,42,12.60
2024,01,30,15,43,12.60
2024,01,30,15,44,12.50
2024,01,30,15,45,12.50
2024,01,30,15,46,12.50
2024,01,30,15,47,12.50
2024,01,30,15,48,12.40
2024,01,30,15,49,12.40
2024,01,30,15,50,12.40
2024,01,30,15,51,12.40
2024,01,30,15,52,12.40
2024,01,30,15,53,12.30
2024,01,30,15,54,12.30
2024,01,30,15,55,12.30
2024,01,30,15,56,12.30
2024,01,30,15,57,12.30
2024,01,30,15,58,12.30
2024,01,30,15,59,12.30
2024,01,30,16,00,12.30
2024,01,30,16,01,12.30
2024,01,30,16,02,12.30
2024,01,30,16,03,12.30
2024,01,30,16,04,12.30
2024,01,30,16,05,12.30
2024,01,30,16,06,12.30
2024,01,30,16,07,12.30
2024,01,30,16,08,12.30
2024,01,30,16,09,12.30
2024,01,30,16,10,12.30
2024,01,30,16,11,12.30
2024,01,30,16,12,12.30
2024,01,30,16,13,12.30
2024,01,30,16,14,12.30
2024,01,30,16,15,12.30
2024,01,30,16,16,12.30
2024,01,30,16,17,12.30
2024,01,30,16,18,12.30
2024,01,30,16,19,12.30
2024,01,30,16,20,12.30
2024,01,30,16,21,12.30
2024,01,30,16,22,12.30
2024,01,30,16,23,12.30
2024,01,30,16,24,12.30
2024,01,30,16,25,12.30
2024,01,30,16,26,12.30
2024,01,30,16,27,12.30
2024,01,30,16,28,12.30
2024,01,30,16,29,12.30
2024,01,30,16,30,12.30
2024,01,30,16,31,12.30
2024,01,30,16,32,12.30
2024,01,30,16,33,12.30
2024,01,30,16,34,12.30
2024,01,30,16,35,12.30
2024,01,30,16,36,12.30
2024,01,30,16,37,12.30
2024,01,30,16,38,12.30
2024,01,30,16,39,12.30
2024,01,30,16,40,12.30
2024,01,30,16,41,12.30
2024,01,30,16,42,12.30
2024,01,30,16,43,12.30
2024,01,30,16,44,12.20
2024,01,30,16,45,12.20
2024,01,30,16,46,12.20
2024,01,30,16,47,12.20
2024,01,30,16,48,12.20
2024,01,30,16,49,12.20
2024,01,30,16,50,12.10
2024,01,30,16,51,12.10
2024,01,30,16,52,12.10
2024,01,30,16,53,12.10
2024,01,30,16,54,12.10
2024,01,30,16,55,12.10
2024,01,30,16,56,12.10
2024,01,30,16,57,12.10
2024,01,30,16,58,12.10
2024,01,30,16,59,12.00
2024,01,30,17,00,12.00
2024,01,30,17,01,12.00
2024,01,30,17,02,12.00
2024,01,30,17,03,12.00
2024,01,30,17,04,12.00
2024,01,30,17,05,12.00
2024,01,30,17,06,12.00
2024,01,30,17,07,12.00
2024,01,30,17,08,12.00
2024,01,30,17,09,12.00
2024,01,30,17,10,12.00
2024,01,30,17,11,12.00
2024,01,30,17,12,12.00
2024,01,30,17,13,12.00
2024,01,30,17,14,12.00
2024,01,30,17,15,12.00
2024,01,30,17,16,12.00
2024,01,30,17,17,12.00
2024,01,30,17,18,12.00
2024,01,30,17,19,12.00
2024,01,30,17,20,12.00
2024,01,30,17,21,12.00
2024,01,30,17,22,12.00
2024,01,30,17,23,12.00
2024,01,30,17,24,12.00
2024,01,30,17,25,12.00
2024,01,30,17,26,12.10
2024,01,30,17,27,12.10
2024,01,30,17,28,12.10
2024,01,30,17,29,12.10
2024,01,30,17,30,12.00
2024,01,30,17,31,12.00
2024,01,30,17,32,12.00
2024,01,30,17,33,12.00
2024,01,30,17,34,12.00
2024,01,30,17,35,12.00
2024,01,30,17,36,12.00
2024,01,30,17,37,12.00
2024,01,30,17,38,12.00
2024,01,30,17,39,12.00
2024,01,30,17,40,12.00
2024,01,30,17,41,12.00
2024,01,30,17,42,12.00
2024,01,30,17,43,12.00
2024,01,30,17,44,12.00
2024,01,30,17,45,12.00
2024,01,30,17,46,12.00
2024,01,30,17,47,12.00
2024,01,30,17,48,12.10
2024,01,30,17,49,12.10
2024,01,30,17,50,12.10
2024,01,30,17,51,12.10
2024,01,30,17,52,12.10
2024,01,30,17,53,12.10
2024,01,30,17,54,12.10
2024,01,30,17,55,12.10
2024,01,30,17,56,12.10
2024,01,30,17,57,12.10
2024,01,30,17,58,12.10
2024,01,30,17,59,12.00
2024,01,30,18,00,12.00
2024,01,30,18,01,12.00
2024,01,30,18,02,11.90
2024,01,30,18,03,11.90
2024,01,30,18,04,11.90
2024,01,30,18,05,11.90
2024,01,30,18,06,11.90
2024,01,30,18,07,11.90
2024,01,30,18,08,11.90
2024,01,30,18,09,11.90
2024,01,30,18,10,11.80
2024,01,30,18,11,11.80
2024,01,30,18,12,11.80
2024,01,30,18,13,11.80
2024,01,30,18,14,11.80
2024,01,30,18,15,11.80
2024,01,30,18,16,11.90
2024,01,30,18,17,11.90
2024,01,30,18,18,11.90
2024,01,30,18,19,11.90
2024,01,30,18,20,11.90
2024,01,30,18,21,11.90
2024,01,30,18,22,11.90
2024,01,30,18,23,11.90
2024,01,30,18,24,11.90
2024,01,30,18,25,11.90
2024,01,30,18,26,11.90
2024,01,30,18,27,12.00
2024,01,30,18,28,12.00
2024,01,30,18,29,12.00
2024,01,30,18,30,12.00
2024,01,30,18,31,12.00
2024,01,30,18,32,12.00
2024,01,30,18,33,12.00
2024,01,30,18,34,12.00
2024,01,30,18,35,12.00
2024,01,30,18,36,12.00
2024,01,30,18,37,12.10
2024,01,30,18,38,12.10
2024,01,30,18,39,12.10
2024,01,30,18,40,12.10
2024,01,30,18,41,12.10
2024,01,30,18,42,12.10
2024,01,30,18,43,12.10
2024,01,30,18,44,12.10
2024,01,30,18,45,12.10
2024,01,30,18,46,12.10
2024,01,30,18,47,12.10
2024,01,30,18,48,12.10
2024,01,30,18,49,12.00
2024,01,30,18,50,12.00
2024,01,30,18,51,12.00
2024,01,30,18,52,12.00
2024,01,30,18,53,11.90
2024,01,30,18,54,11.90
2024,01,30,18,55,11.90
2024,01,30,18,56,11.90
2024,01,30,18,57,11.90
2024,01,30,18,58,11.90
2024,01,30,18,59,11.90
2024,01,30,19,00,11.90
2024,01,30,19,01,11.80
2024,01,30,19,02,11.90
2024,01,30,19,03,11.90
2024,01,30,19,04,11.80
2024,01,30,19,05,11.80
2024,01,30,19,06,11.80
2024,01,30,19,07,11.80
2024,01,30,19,08,11.80
2024,01,30,19,09,11.80
2024,01,30,19,10,11.80
2024,01,30,19,11,11.80
2024,01,30,19,12,11.80
2024,01,30,19,13,11.70
2024,01,30,19,14,11.70
2024,01,30,19,15,11.70
2024,01,30,19,16,11.70
2024,01,30,19,17,11.70
2024,01,30,19,18,11.70
2024,01,30,19,19,11.70
2024,01,30,19,20,11.70
2024,01,30,19,21,11.70
2024,01,30,19,22,11.70
2024,01,30,19,23,11.70
2024,01,30,19,24,11.70
2024,01,30,19,25,11.60
2024,01,30,19,26,11.60
2024,01,30,19,27,11.60
2024,01,30,19,28,11.60
2024,01,30,19,29,11.60
2024,01,30,19,30,11.60
2024,01,30,19,31,11.70
2024,01,30,19,32,11.70
2024,01,30,19,33,11.70
2024,01,30,19,34,11.60
2024,01,30,19,35,11.60
2024,01,30,19,36,11.60
2024,01,30,19,37,11.60
2024,01,30,19,38,11.60
2024,01,30,19,39,11.60
2024,01,30,19,40,11.60
2024,01,30,19,41,11.60
2024,01,30,19,42,11.60
2024,01,30,19,43,11.60
2024,01,30,19,44,11.50
2024,01,30,19,45,11.50
2024,01,30,19,46,11.50
2024,01,30,19,47,11.50
2024,01,30,19,48,11.50
2024,01,30,19,49,11.40
2024,01,30,19,50,11.40
2024,01,30,19,51,11.40
2024,01,30,19,52,11.40
2024,01,30,19,53,11.40
2024,01,30,19,54,11.40
2024,01,30,19,55,11.40
2024,01,30,19,56,11.40
2024,01,30,19,57,11.40
2024,01,30,19,58,11.40
2024,01,30,19,59,11.40
2024,01,30,20,00,11.40
2024,01,30,20,01,11.40
2024,01,30,20,02,11.40
2024,01,30,20,03,11.40
2024,01,30,20,04,11.40
2024,01,30,20,05,11.40
2024,01,30,20,06,11.40
2024,01,30,20,07,11.40
2024,01,30,20,08,11.40
2024,01,30,20,09,11.40
2024,01,30,20,10,11.40
2024,01,30,20,11,11.40
2024,01,30,20,12,11.40
2024,01,30,20,13,11.40
2024,01,30,20,14,11.30
2024,01,30,20,15,11.30
2024,01,30,20,16,11.30
2024,01,30,20,17,11.30
2024,01,30,20,18,11.30
2024,01,30,20,19,11.30
2024,01,30,20,20,11.30
2024,01,30,20,21,11.30
2024,01,30,20,22,11.30
2024,01,30,20,23,11.30
2024,01,30,20,24,11.30
2024,01,30,20,25,11.30
2024,01,30,20,26,11.30
2024,01,30,20,27,11.30
2024,01,30,20,28,11.30
2024,01,30,20,29,11.30
2024,01,30,20,30,11.30
2024,01,30,20,31,11.30
2024,01,30,20,32,11.30
2024,01,30,20,33,11.30
2024,01,30,20,34,11.30
2024,01,30,20,35,11.30
2024,01,30,20,36,11.30
2024,01,30,20,37,11.30
2024,01,30,20,38,11.30
2024,01,30,20,39,11.30
2024,01,30,20,40,11.30
2024,01,30,20,41,11.30
2024,01,30,20,42,11.30
2024,01,30,20,43,11.30
2024,01,30,20,44,11.30
2024,01,30,20,45,11.30
2024,01,30,20,46,11.30
2024,01,30,20,47,11.30
2024,01,30,20,48,11.30
2024,01,30,20,49,11.30
2024,01,30,20,50,11.30
2024,01,30,20,51,11.30
2024,01,30,20,52,11.30
2024,01,30,20,53,11.30
2024,01,30,20,54,11.30
2024,01,30,20,55,11.30
2024,01,30,20,56,11.30
2024,01,30,20,57,11.30
2024,01,30,20,58,11.30
2024,01,30,20,59,11.30
2024,01,30,21,00,11.30
2024,01,30,21,01,11.30
2024,01,30,21,02,11.30
2024,01,30,21,03,11.30
2024,01,30,21,04,11.30
2024,01,30,21,05,11.30
2024,01,30,21,06,11.20
2024,01,30,21,07,11.20
2024,01,30,21,08,11.20
2024,01,30,21,09,11.20
2024,01,30,21,10,11.20
2024,01,30,21,11,11.20
2024,01,30,21,12,11.20
2024,01,30,21,13,11.20
2024,01,30,21,14,11.20
2024,01,30,21,15,11.20
2024,01,30,21,16,11.20
2024,01,30,21,17,11.20
2024,01,30,21,18,11.20
2024,01,30,21,19,11.20
2024,01,30,21,20,11.20
2024,01,30,21,21,11.20
2024,01,30,21,22,11.20
2024,01,30,21,23,11.10
2024,01,30,21,24,11.10
2024,01,30,21,25,11.10
2024,01,30,21,26,11.10
2024,01,30,21,27,11.10
2024,01,30,21,28,11.10
2024,01,30,21,29,11.10
2024,01,30,21,30,11.10
2024,01,30,21,31,11.10
2024,01,30,21,32,11.10
2024,01,30,21,33,11.10
2024,01,30,21,34,11.00
2024,01,30,21,35,11.00
2024,01,30,21,36,11.00
2024,01,30,21,37,11.00
2024,01,30,21,38,11.00
2024,01,30,21,39,11.00
2024,01,30,21,40,11.00
2024,01,30,21,41,11.00
2024,01,30,21,42,11.00
2024,01,30,21,43,11.00
2024,01,30,21,44,11.00
2024,01,30,21,45,10.90
2024,01,30,21,46,10.90
2024,01,30,21,47,10.90
2024,01,30,21,48,11.00
2024,01,30,21,49,11.00
2024,01,30,21,50,11.00
2024,01,30,21,51,11.00
2024,01,30,21,52,11.00
2024,01,30,21,53,11.00
2024,01,30,21,54,11.00
2024,01,30,21,55,11.00
2024,01,30,21,56,11.00
2024,01,30,21,57,11.00
2024,01,30,21,58,11.00
2024,01,30,21,59,11.00
2024,01,30,22,00,11.00
2024,01,30,22,01,11.00
2024,01,30,22,02,10.90
2024,01,30,22,03,10.90
2024,01,30,22,04,10.90
2024,01,30,22,05,10.90
2024,01,30,22,06,10.90
2024,01,30,22,07,10.90
2024,01,30,22,08,10.90
2024,01,30,22,09,10.90
2024,01,30,22,10,10.90
2024,01,30,22,11,10.90
2024,01,30,22,12,10.90
2024,01,30,22,13,10.90
2024,01,30,22,14,10.90
2024,01,30,22,15,10.90
2024,01,30,22,16,10.90
2024,01,30,22,17,10.90
2024,01,30,22,18,10.90
2024,01,30,22,19,10.90
2024,01,30,22,20,10.90
2024,01,30,22,21,10.90
2024,01,30,22,22,10.90
2024,01,30,22,23,10.90
2024,01,30,22,24,10.90
2024,01,30,22,25,10.90
2024,01,30,22,26,10.90
2024,01,30,22,27,10.90
2024,01,30,22,28,10.90
2024,01,30,22,29,10.90
2024,01,30,22,30,10.90
2024,01,30,22,31,10.90
2024,01,30,22,32,10.90
2024,01,30,22,33,10.90
2024,01,30,22,34,10.90
2024,01,30,22,35,10.90
2024,01,30,22,36,10.90
2024,01,30,22,37,10.90
2024,01,30,22,38,10.90
2024,01,30,22,39,10.90
2024,01,30,22,40,10.90
2024,01,30,22,41,10.90
2024,01,30,22,42,10.90
2024,01,30,22,43,10.90
2024,01,30,22,44,10.90
2024,01,30,22,45,10.90
2024,01,30,22,46,10.90
2024,01,30,22,47,10.90
2024,01,30,22,48,10.90
2024,01,30,22,49,10.90
2024,01,30,22,50,10.90
2024,01,30,22,51,10.90
2024,01,30,22,52,10.90
2024,01,30,22,53,10.90
2024,01,30,22,54,10.90
2024,01,30,22,55,10.90
2024,01,30,22,56,10.90
2024,01,30,22,57,10.90
2024,01,30,22,58,10.80
2024,01,30,22,59,10.80
2024,01,30,23,00,10.80
2024,01,30,23,01,10.80
2024,01,30,23,02,10.80
2024,01,30,23,03,10.80
2024,01,30,23,04,10.80
2024,01,30,23,05,10.80
2024,01,30,23,06,10.80
2024,01,30,23,07,10.80
2024,01,30,23,08,10.80
2024,01,30,23,09,10.80
2024,01,30,23,10,10.80
2024,01,30,23,11,10.70
2024,01,30,23,12,10.70
2024,01,30,23,13,10.70
2024,01,30,23,14,10.70
2024,01,30,23,15,10.70
2024,01,30,23,16,10.70
2024,01,30,23,17,10.70
2024,01,30,23,18,10.70
2024,01,30,23,19,10.70
2024,01,30,23,20,10.70
2024,01,30,23,21,10.70
2024,01,30,23,22,10.70
2024,01,30,23,23,10.70
2024,01,30,23,24,10.70
2024,01,30,23,25,10.70
2024,01,30,23,26,10.70
2024,01,30,23,27,10.70
2024,01,30,23,28,10.70
2024,01,30,23,29,10.70
2024,01,30,23,30,10.70
2024,01,30,23,31,10.70
2024,01,30,23,32,10.70
2024,01,30,23,33,10.70
2024,01,30,23,34,10.70
2024,01,30,23,35,10.80
2024,01,30,23,36,10.80
2024,01,30,23,37,10.80
2024,01,30,23,38,10.70
2024,01,30,23,39,10.70
2024,01,30,23,40,10.70
2024,01,30,23,41,10.70
2024,01,30,23,42,10.70
2024,01,30,23,43,10.70
2024,01,30,23,44,10.70
2024,01,30,23,45,10.70
2024,01,30,23,46,10.80
2024,01,30,23,47,10.80
2024,01,30,23,48,10.80
2024,01,30,23,49,10.80